Year,Month,Day,Hour,Minute,Value (Times are PST for windspeed in km/hr)
2010,05,03,00,00,7.70
2010,05,03,00,01,13.30
2010,05,03,00,02,12.60
2010,05,03,00,03,14.10
2010,05,03,00,04,8.60
2010,05,03,00,05,8.80
2010,05,03,00,06,10.40
2010,05,03,00,07,9.90
2010,05,03,00,08,12.80
2010,05,03,00,09,10.20
2010,05,03,00,10,7.20
2010,05,03,00,11,7.70
2010,05,03,00,12,14.40
2010,05,03,00,13,14.30
2010,05,03,00,14,9.40
2010,05,03,00,15,10.50
2010,05,03,00,16,8.40
2010,05,03,00,17,8.50
2010,05,03,00,18,13.00
2010,05,03,00,19,13.60
2010,05,03,00,20,11.70
2010,05,03,00,21,9.20
2010,05,03,00,22,8.10
2010,05,03,00,23,8.70
2010,05,03,00,24,6.90
2010,05,03,00,25,8.50
2010,05,03,00,26,10.10
2010,05,03,00,27,9.30
2010,05,03,00,28,15.80
2010,05,03,00,29,13.60
2010,05,03,00,30,11.90
2010,05,03,00,31,9.10
2010,05,03,00,32,15.40
2010,05,03,00,33,13.90
2010,05,03,00,34,13.20
2010,05,03,00,35,12.40
2010,05,03,00,36,8.90
2010,05,03,00,37,11.30
2010,05,03,00,38,12.10
2010,05,03,00,39,12.80
2010,05,03,00,40,7.40
2010,05,03,00,41,10.10
2010,05,03,00,42,9.50
2010,05,03,00,43,9.10
2010,05,03,00,44,9.10
2010,05,03,00,45,10.80
2010,05,03,00,46,11.70
2010,05,03,00,47,9.10
2010,05,03,00,48,13.20
2010,05,03,00,49,7.30
2010,05,03,00,50,9.50
2010,05,03,00,51,10.50
2010,05,03,00,52,11.30
2010,05,03,00,53,10.30
2010,05,03,00,54,9.80
2010,05,03,00,55,8.40
2010,05,03,00,56,13.20
2010,05,03,00,57,10.40
2010,05,03,00,58,9.30
2010,05,03,00,59,13.10
2010,05,03,01,00,14.20
2010,05,03,01,01,15.20
2010,05,03,01,02,14.90
2010,05,03,01,03,10.80
2010,05,03,01,04,9.30
2010,05,03,01,05,10.00
2010,05,03,01,06,11.50
2010,05,03,01,07,13.60
2010,05,03,01,08,13.00
2010,05,03,01,09,11.30
2010,05,03,01,10,9.50
2010,05,03,01,11,7.70
2010,05,03,01,12,9.50
2010,05,03,01,13,8.40
2010,05,03,01,14,10.70
2010,05,03,01,15,8.30
2010,05,03,01,16,8.90
2010,05,03,01,17,11.50
2010,05,03,01,18,10.90
2010,05,03,01,19,11.90
2010,05,03,01,20,15.40
2010,05,03,01,21,12.20
2010,05,03,01,22,11.40
2010,05,03,01,23,10.10
2010,05,03,01,24,8.60
2010,05,03,01,25,10.40
2010,05,03,01,26,8.20
2010,05,03,01,27,10.10
2010,05,03,01,28,7.70
2010,05,03,01,29,7.50
2010,05,03,01,30,5.60
2010,05,03,01,31,5.90
2010,05,03,01,32,8.10
2010,05,03,01,33,9.30
2010,05,03,01,34,9.80
2010,05,03,01,35,11.80
2010,05,03,01,36,9.20
2010,05,03,01,37,10.60
2010,05,03,01,38,13.40
2010,05,03,01,39,9.70
2010,05,03,01,40,8.20
2010,05,03,01,41,11.50
2010,05,03,01,42,10.20
2010,05,03,01,43,10.10
2010,05,03,01,44,11.80
2010,05,03,01,45,15.80
2010,05,03,01,46,17.40
2010,05,03,01,47,13.40
2010,05,03,01,48,11.70
2010,05,03,01,49,8.60
2010,05,03,01,50,7.20
2010,05,03,01,51,15.20
2010,05,03,01,52,13.80
2010,05,03,01,53,13.50
2010,05,03,01,54,9.70
2010,05,03,01,55,16.70
2010,05,03,01,56,15.00
2010,05,03,01,57,14.10
2010,05,03,01,58,9.40
2010,05,03,01,59,12.40
2010,05,03,02,00,20.30
2010,05,03,02,01,15.30
2010,05,03,02,02,15.10
2010,05,03,02,03,14.90
2010,05,03,02,04,11.60
2010,05,03,02,05,16.70
2010,05,03,02,06,25.80
2010,05,03,02,07,20.40
2010,05,03,02,08,17.00
2010,05,03,02,09,31.10
2010,05,03,02,10,26.00
2010,05,03,02,11,30.10
2010,05,03,02,12,23.60
2010,05,03,02,13,19.60
2010,05,03,02,14,27.30
2010,05,03,02,15,30.80
2010,05,03,02,16,26.90
2010,05,03,02,17,28.70
2010,05,03,02,18,17.70
2010,05,03,02,19,22.00
2010,05,03,02,20,22.00
2010,05,03,02,21,22.10
2010,05,03,02,22,27.00
2010,05,03,02,23,22.90
2010,05,03,02,24,15.10
2010,05,03,02,25,20.60
2010,05,03,02,26,14.00
2010,05,03,02,27,23.00
2010,05,03,02,28,24.50
2010,05,03,02,29,22.70
2010,05,03,02,30,21.00
2010,05,03,02,31,19.50
2010,05,03,02,32,20.10
2010,05,03,02,33,20.10
2010,05,03,02,34,18.80
2010,05,03,02,35,26.10
2010,05,03,02,36,20.30
2010,05,03,02,37,18.50
2010,05,03,02,38,25.50
2010,05,03,02,39,23.10
2010,05,03,02,40,24.90
2010,05,03,02,41,23.90
2010,05,03,02,42,19.40
2010,05,03,02,43,28.60
2010,05,03,02,44,26.30
2010,05,03,02,45,25.30
2010,05,03,02,46,27.30
2010,05,03,02,47,21.70
2010,05,03,02,48,25.70
2010,05,03,02,49,28.50
2010,05,03,02,50,23.00
2010,05,03,02,51,15.70
2010,05,03,02,52,21.40
2010,05,03,02,53,17.00
2010,05,03,02,54,16.50
2010,05,03,02,55,27.60
2010,05,03,02,56,25.70
2010,05,03,02,57,22.10
2010,05,03,02,58,21.00
2010,05,03,02,59,30.20
2010,05,03,03,00,22.00
2010,05,03,03,01,18.70
2010,05,03,03,02,16.40
2010,05,03,03,03,21.90
2010,05,03,03,04,21.60
2010,05,03,03,05,23.20
2010,05,03,03,06,24.10
2010,05,03,03,07,22.90
2010,05,03,03,08,22.90
2010,05,03,03,09,12.50
2010,05,03,03,10,16.70
2010,05,03,03,11,16.90
2010,05,03,03,12,16.60
2010,05,03,03,13,16.00
2010,05,03,03,14,15.10
2010,05,03,03,15,3.60
2010,05,03,03,16,10.40
2010,05,03,03,17,15.40
2010,05,03,03,18,12.60
2010,05,03,03,19,6.40
2010,05,03,03,20,5.00
2010,05,03,03,21,9.60
2010,05,03,03,22,9.50
2010,05,03,03,23,14.70
2010,05,03,03,24,9.80
2010,05,03,03,25,19.70
2010,05,03,03,26,13.20
2010,05,03,03,27,6.40
2010,05,03,03,28,11.90
2010,05,03,03,29,10.50
2010,05,03,03,30,7.60
2010,05,03,03,31,16.20
2010,05,03,03,32,11.70
2010,05,03,03,33,7.70
2010,05,03,03,34,13.40
2010,05,03,03,35,17.40
2010,05,03,03,36,17.20
2010,05,03,03,37,8.20
2010,05,03,03,38,22.90
2010,05,03,03,39,22.50
2010,05,03,03,40,14.70
2010,05,03,03,41,13.80
2010,05,03,03,42,7.90
2010,05,03,03,43,21.20
2010,05,03,03,44,19.20
2010,05,03,03,45,17.70
2010,05,03,03,46,23.10
2010,05,03,03,47,15.30
2010,05,03,03,48,15.80
2010,05,03,03,49,14.70
2010,05,03,03,50,19.10
2010,05,03,03,51,23.40
2010,05,03,03,52,15.70
2010,05,03,03,53,24.20
2010,05,03,03,54,19.40
2010,05,03,03,55,26.50
2010,05,03,03,56,19.80
2010,05,03,03,57,18.00
2010,05,03,03,58,18.80
2010,05,03,03,59,19.60
2010,05,03,04,00,23.50
2010,05,03,04,01,18.00
2010,05,03,04,02,22.30
2010,05,03,04,03,16.90
2010,05,03,04,04,23.10
2010,05,03,04,05,21.00
2010,05,03,04,06,18.10
2010,05,03,04,07,30.50
2010,05,03,04,08,25.20
2010,05,03,04,09,24.00
2010,05,03,04,10,19.10
2010,05,03,04,11,24.60
2010,05,03,04,12,23.90
2010,05,03,04,13,16.30
2010,05,03,04,14,21.60
2010,05,03,04,15,15.80
2010,05,03,04,16,23.80
2010,05,03,04,17,19.10
2010,05,03,04,18,25.40
2010,05,03,04,19,31.50
2010,05,03,04,20,18.60
2010,05,03,04,21,24.90
2010,05,03,04,22,19.70
2010,05,03,04,23,30.10
2010,05,03,04,24,28.60
2010,05,03,04,25,23.40
2010,05,03,04,26,20.40
2010,05,03,04,27,26.80
2010,05,03,04,28,31.50
2010,05,03,04,29,22.30
2010,05,03,04,30,16.60
2010,05,03,04,31,15.90
2010,05,03,04,32,15.90
2010,05,03,04,33,27.40
2010,05,03,04,34,33.90
2010,05,03,04,35,24.90
2010,05,03,04,36,12.40
2010,05,03,04,37,24.70
2010,05,03,04,38,18.60
2010,05,03,04,39,24.80
2010,05,03,04,40,20.40
2010,05,03,04,41,14.00
2010,05,03,04,42,19.20
2010,05,03,04,43,23.50
2010,05,03,04,44,20.20
2010,05,03,04,45,18.50
2010,05,03,04,46,26.20
2010,05,03,04,47,20.40
2010,05,03,04,48,23.20
2010,05,03,04,49,21.60
2010,05,03,04,50,12.70
2010,05,03,04,51,21.20
2010,05,03,04,52,13.40
2010,05,03,04,53,15.30
2010,05,03,04,54,23.60
2010,05,03,04,55,13.30
2010,05,03,04,56,10.30
2010,05,03,04,57,21.40
2010,05,03,04,58,20.00
2010,05,03,04,59,19.40
2010,05,03,05,00,18.30
2010,05,03,05,01,26.10
2010,05,03,05,02,26.30
2010,05,03,05,03,21.80
2010,05,03,05,04,13.00
2010,05,03,05,05,27.60
2010,05,03,05,06,16.80
2010,05,03,05,07,12.80
2010,05,03,05,08,21.80
2010,05,03,05,09,20.30
2010,05,03,05,10,21.00
2010,05,03,05,11,23.00
2010,05,03,05,12,24.00
2010,05,03,05,13,29.90
2010,05,03,05,14,17.90
2010,05,03,05,15,19.00
2010,05,03,05,16,17.60
2010,05,03,05,17,24.80
2010,05,03,05,18,23.90
2010,05,03,05,19,20.20
2010,05,03,05,20,20.20
2010,05,03,05,21,22.80
2010,05,03,05,22,25.10
2010,05,03,05,23,28.00
2010,05,03,05,24,24.60
2010,05,03,05,25,23.00
2010,05,03,05,26,22.20
2010,05,03,05,27,25.60
2010,05,03,05,28,17.80
2010,05,03,05,29,20.00
2010,05,03,05,30,22.10
2010,05,03,05,31,19.80
2010,05,03,05,32,15.80
2010,05,03,05,33,15.80
2010,05,03,05,34,18.00
2010,05,03,05,35,18.50
2010,05,03,05,36,20.80
2010,05,03,05,37,25.70
2010,05,03,05,38,18.10
2010,05,03,05,39,13.00
2010,05,03,05,40,11.40
2010,05,03,05,41,12.10
2010,05,03,05,42,25.20
2010,05,03,05,43,22.10
2010,05,03,05,44,24.80
2010,05,03,05,45,25.20
2010,05,03,05,46,17.40
2010,05,03,05,47,22.80
2010,05,03,05,48,21.80
2010,05,03,05,49,22.60
2010,05,03,05,50,19.20
2010,05,03,05,51,20.70
2010,05,03,05,52,26.50
2010,05,03,05,53,23.90
2010,05,03,05,54,24.70
2010,05,03,05,55,22.10
2010,05,03,05,56,21.60
2010,05,03,05,57,22.80
2010,05,03,05,58,22.00
2010,05,03,05,59,24.50
2010,05,03,06,00,19.90
2010,05,03,06,01,21.40
2010,05,03,06,02,18.50
2010,05,03,06,03,25.90
2010,05,03,06,04,33.30
2010,05,03,06,05,27.80
2010,05,03,06,06,26.90
2010,05,03,06,07,28.00
2010,05,03,06,08,27.40
2010,05,03,06,09,33.30
2010,05,03,06,10,21.90
2010,05,03,06,11,23.50
2010,05,03,06,12,33.00
2010,05,03,06,13,22.00
2010,05,03,06,14,24.50
2010,05,03,06,15,34.80
2010,05,03,06,16,29.40
2010,05,03,06,17,30.20
2010,05,03,06,18,27.40
2010,05,03,06,19,29.40
2010,05,03,06,20,24.30
2010,05,03,06,21,22.50
2010,05,03,06,22,25.10
2010,05,03,06,23,24.80
2010,05,03,06,24,32.70
2010,05,03,06,25,29.50
2010,05,03,06,26,26.30
2010,05,03,06,27,24.30
2010,05,03,06,28,25.10
2010,05,03,06,29,22.40
2010,05,03,06,30,28.60
2010,05,03,06,31,19.90
2010,05,03,06,32,25.80
2010,05,03,06,33,29.20
2010,05,03,06,34,29.30
2010,05,03,06,35,24.80
2010,05,03,06,36,19.70
2010,05,03,06,37,26.80
2010,05,03,06,38,29.40
2010,05,03,06,39,27.10
2010,05,03,06,40,29.10
2010,05,03,06,41,22.80
2010,05,03,06,42,29.80
2010,05,03,06,43,22.30
2010,05,03,06,44,20.60
2010,05,03,06,45,25.30
2010,05,03,06,46,31.10
2010,05,03,06,47,23.30
2010,05,03,06,48,27.20
2010,05,03,06,49,18.80
2010,05,03,06,50,21.90
2010,05,03,06,51,31.60
2010,05,03,06,52,26.20
2010,05,03,06,53,24.60
2010,05,03,06,54,19.00
2010,05,03,06,55,27.30
2010,05,03,06,56,27.40
2010,05,03,06,57,30.40
2010,05,03,06,58,26.00
2010,05,03,06,59,24.30
2010,05,03,07,00,23.60
2010,05,03,07,01,18.40
2010,05,03,07,02,14.70
2010,05,03,07,03,20.00
2010,05,03,07,04,22.60
2010,05,03,07,05,21.50
2010,05,03,07,06,20.00
2010,05,03,07,07,25.40
2010,05,03,07,08,29.10
2010,05,03,07,09,29.40
2010,05,03,07,10,20.30
2010,05,03,07,11,24.30
2010,05,03,07,12,20.10
2010,05,03,07,13,18.30
2010,05,03,07,14,18.30
2010,05,03,07,15,11.50
2010,05,03,07,16,16.00
2010,05,03,07,17,20.70
2010,05,03,07,18,18.50
2010,05,03,07,19,22.40
2010,05,03,07,20,22.10
2010,05,03,07,21,23.40
2010,05,03,07,22,23.10
2010,05,03,07,23,13.00
2010,05,03,07,24,15.20
2010,05,03,07,25,25.70
2010,05,03,07,26,22.00
2010,05,03,07,27,23.90
2010,05,03,07,28,24.60
2010,05,03,07,29,20.60
2010,05,03,07,30,25.60
2010,05,03,07,31,25.50
2010,05,03,07,32,19.90
2010,05,03,07,33,20.20
2010,05,03,07,34,18.70
2010,05,03,07,35,26.10
2010,05,03,07,36,12.40
2010,05,03,07,37,24.50
2010,05,03,07,38,19.00
2010,05,03,07,39,15.70
2010,05,03,07,40,20.20
2010,05,03,07,41,27.30
2010,05,03,07,42,20.50
2010,05,03,07,43,19.20
2010,05,03,07,44,15.30
2010,05,03,07,45,18.50
2010,05,03,07,46,27.40
2010,05,03,07,47,27.00
2010,05,03,07,48,25.80
2010,05,03,07,49,18.00
2010,05,03,07,50,19.70
2010,05,03,07,51,17.00
2010,05,03,07,52,20.30
2010,05,03,07,53,16.60
2010,05,03,07,54,19.60
2010,05,03,07,55,20.50
2010,05,03,07,56,24.10
2010,05,03,07,57,16.10
2010,05,03,07,58,19.10
2010,05,03,07,59,24.60
2010,05,03,08,00,26.50
2010,05,03,08,01,13.40
2010,05,03,08,02,19.70
2010,05,03,08,03,23.70
2010,05,03,08,04,28.30
2010,05,03,08,05,20.00
2010,05,03,08,06,17.10
2010,05,03,08,07,31.00
2010,05,03,08,08,30.90
2010,05,03,08,09,24.70
2010,05,03,08,10,30.80
2010,05,03,08,11,20.60
2010,05,03,08,12,24.10
2010,05,03,08,13,32.00
2010,05,03,08,14,24.70
2010,05,03,08,15,22.40
2010,05,03,08,16,24.60
2010,05,03,08,17,24.30
2010,05,03,08,18,16.90
2010,05,03,08,19,19.70
2010,05,03,08,20,18.10
2010,05,03,08,21,17.60
2010,05,03,08,22,20.30
2010,05,03,08,23,17.10
2010,05,03,08,24,24.70
2010,05,03,08,25,16.50
2010,05,03,08,26,21.90
2010,05,03,08,27,22.10
2010,05,03,08,28,16.80
2010,05,03,08,29,15.80
2010,05,03,08,30,18.40
2010,05,03,08,31,11.90
2010,05,03,08,32,20.60
2010,05,03,08,33,17.50
2010,05,03,08,34,24.30
2010,05,03,08,35,23.90
2010,05,03,08,36,19.80
2010,05,03,08,37,21.40
2010,05,03,08,38,21.90
2010,05,03,08,39,31.30
2010,05,03,08,40,22.50
2010,05,03,08,41,21.30
2010,05,03,08,42,28.90
2010,05,03,08,43,30.70
2010,05,03,08,44,24.60
2010,05,03,08,45,16.30
2010,05,03,08,46,16.10
2010,05,03,08,47,24.20
2010,05,03,08,48,18.20
2010,05,03,08,49,21.90
2010,05,03,08,50,29.20
2010,05,03,08,51,28.10
2010,05,03,08,52,18.70
2010,05,03,08,53,25.20
2010,05,03,08,54,30.90
2010,05,03,08,55,22.50
2010,05,03,08,56,19.30
2010,05,03,08,57,17.90
2010,05,03,08,58,17.40
2010,05,03,08,59,22.70
2010,05,03,09,00,20.30
2010,05,03,09,01,23.60
2010,05,03,09,02,27.90
2010,05,03,09,03,24.70
2010,05,03,09,04,20.80
2010,05,03,09,05,25.50
2010,05,03,09,06,22.70
2010,05,03,09,07,26.10
2010,05,03,09,08,22.70
2010,05,03,09,09,22.70
2010,05,03,09,10,23.60
2010,05,03,09,11,21.50
2010,05,03,09,12,26.20
2010,05,03,09,13,33.90
2010,05,03,09,14,19.40
2010,05,03,09,15,26.50
2010,05,03,09,16,27.80
2010,05,03,09,17,33.80
2010,05,03,09,18,29.40
2010,05,03,09,19,27.60
2010,05,03,09,20,23.50
2010,05,03,09,21,29.90
2010,05,03,09,22,20.70
2010,05,03,09,23,29.90
2010,05,03,09,24,28.20
2010,05,03,09,25,23.50
2010,05,03,09,26,30.30
2010,05,03,09,27,31.00
2010,05,03,09,28,27.50
2010,05,03,09,29,28.70
2010,05,03,09,30,20.70
2010,05,03,09,31,19.20
2010,05,03,09,32,18.70
2010,05,03,09,33,17.40
2010,05,03,09,34,16.00
2010,05,03,09,35,29.90
2010,05,03,09,36,21.30
2010,05,03,09,37,13.00
2010,05,03,09,38,20.60
2010,05,03,09,39,17.10
2010,05,03,09,40,22.00
2010,05,03,09,41,18.40
2010,05,03,09,42,27.40
2010,05,03,09,43,15.10
2010,05,03,09,44,19.10
2010,05,03,09,45,27.40
2010,05,03,09,46,25.20
2010,05,03,09,47,15.70
2010,05,03,09,48,20.10
2010,05,03,09,49,22.50
2010,05,03,09,50,23.00
2010,05,03,09,51,15.80
2010,05,03,09,52,18.20
2010,05,03,09,53,27.10
2010,05,03,09,54,17.30
2010,05,03,09,55,22.00
2010,05,03,09,56,15.60
2010,05,03,09,57,24.10
2010,05,03,09,58,28.70
2010,05,03,09,59,25.10
2010,05,03,10,00,29.20
2010,05,03,10,01,13.60
2010,05,03,10,02,20.10
2010,05,03,10,03,19.00
2010,05,03,10,04,16.30
2010,05,03,10,05,12.90
2010,05,03,10,06,25.20
2010,05,03,10,07,25.10
2010,05,03,10,08,31.50
2010,05,03,10,09,34.50
2010,05,03,10,10,25.10
2010,05,03,10,11,23.80
2010,05,03,10,12,23.00
2010,05,03,10,13,19.70
2010,05,03,10,14,11.60
2010,05,03,10,15,15.40
2010,05,03,10,16,20.90
2010,05,03,10,17,29.80
2010,05,03,10,18,33.60
2010,05,03,10,19,23.50
2010,05,03,10,20,25.60
2010,05,03,10,21,20.90
2010,05,03,10,22,17.40
2010,05,03,10,23,26.90
2010,05,03,10,24,26.50
2010,05,03,10,25,15.80
2010,05,03,10,26,24.60
2010,05,03,10,27,27.40
2010,05,03,10,28,22.10
2010,05,03,10,29,26.10
2010,05,03,10,30,29.60
2010,05,03,10,31,30.20
2010,05,03,10,32,26.30
2010,05,03,10,33,29.90
2010,05,03,10,34,31.80
2010,05,03,10,35,35.10
2010,05,03,10,36,29.20
2010,05,03,10,37,32.70
2010,05,03,10,38,31.30
2010,05,03,10,39,21.60
2010,05,03,10,40,30.40
2010,05,03,10,41,23.20
2010,05,03,10,42,25.80
2010,05,03,10,43,29.90
2010,05,03,10,44,34.60
2010,05,03,10,45,31.30
2010,05,03,10,46,30.20
2010,05,03,10,47,22.70
2010,05,03,10,48,27.30
2010,05,03,10,49,23.90
2010,05,03,10,50,23.50
2010,05,03,10,51,21.40
2010,05,03,10,52,20.60
2010,05,03,10,53,18.20
2010,05,03,10,54,15.10
2010,05,03,10,55,25.50
2010,05,03,10,56,28.70
2010,05,03,10,57,17.10
2010,05,03,10,58,24.60
2010,05,03,10,59,26.10
2010,05,03,11,00,19.70
2010,05,03,11,01,27.00
2010,05,03,11,02,27.50
2010,05,03,11,03,28.70
2010,05,03,11,04,23.40
2010,05,03,11,05,25.80
2010,05,03,11,06,32.70
2010,05,03,11,07,26.40
2010,05,03,11,08,15.80
2010,05,03,11,09,15.20
2010,05,03,11,10,26.10
2010,05,03,11,11,23.00
2010,05,03,11,12,29.60
2010,05,03,11,13,38.10
2010,05,03,11,14,30.70
2010,05,03,11,15,31.90
2010,05,03,11,16,28.30
2010,05,03,11,17,28.00
2010,05,03,11,18,23.60
2010,05,03,11,19,22.20
2010,05,03,11,20,25.70
2010,05,03,11,21,24.80
2010,05,03,11,22,22.30
2010,05,03,11,23,29.40
2010,05,03,11,24,24.30
2010,05,03,11,25,26.40
2010,05,03,11,26,24.60
2010,05,03,11,27,26.10
2010,05,03,11,28,23.40
2010,05,03,11,29,21.70
2010,05,03,11,30,25.10
2010,05,03,11,31,29.80
2010,05,03,11,32,28.50
2010,05,03,11,33,30.10
2010,05,03,11,34,35.80
2010,05,03,11,35,25.60
2010,05,03,11,36,32.50
2010,05,03,11,37,33.30
2010,05,03,11,38,33.10
2010,05,03,11,39,28.50
2010,05,03,11,40,30.10
2010,05,03,11,41,30.30
2010,05,03,11,42,27.40
2010,05,03,11,43,30.70
2010,05,03,11,44,36.80
2010,05,03,11,45,30.80
2010,05,03,11,46,28.30
2010,05,03,11,47,27.30
2010,05,03,11,48,22.40
2010,05,03,11,49,33.40
2010,05,03,11,50,31.50
2010,05,03,11,51,25.20
2010,05,03,11,52,25.00
2010,05,03,11,53,27.60
2010,05,03,11,54,31.50
2010,05,03,11,55,28.60
2010,05,03,11,56,27.00
2010,05,03,11,57,23.60
2010,05,03,11,58,19.10
2010,05,03,11,59,14.80
2010,05,03,12,00,17.60
2010,05,03,12,01,21.90
2010,05,03,12,02,19.40
2010,05,03,12,03,26.00
2010,05,03,12,04,25.80
2010,05,03,12,05,23.50
2010,05,03,12,06,25.80
2010,05,03,12,07,27.30
2010,05,03,12,08,41.80
2010,05,03,12,09,23.40
2010,05,03,12,10,26.90
2010,05,03,12,11,26.40
2010,05,03,12,12,23.10
2010,05,03,12,13,21.30
2010,05,03,12,14,26.20
2010,05,03,12,15,28.00
2010,05,03,12,16,24.30
2010,05,03,12,17,30.00
2010,05,03,12,18,25.00
2010,05,03,12,19,21.60
2010,05,03,12,20,25.30
2010,05,03,12,21,31.40
2010,05,03,12,22,27.90
2010,05,03,12,23,21.60
2010,05,03,12,24,25.20
2010,05,03,12,25,19.10
2010,05,03,12,26,29.90
2010,05,03,12,27,28.10
2010,05,03,12,28,20.00
2010,05,03,12,29,10.90
2010,05,03,12,30,19.60
2010,05,03,12,31,20.80
2010,05,03,12,32,16.40
2010,05,03,12,33,22.90
2010,05,03,12,34,28.70
2010,05,03,12,35,15.90
2010,05,03,12,36,24.50
2010,05,03,12,37,23.90
2010,05,03,12,38,19.90
2010,05,03,12,39,25.20
2010,05,03,12,40,27.10
2010,05,03,12,41,24.70
2010,05,03,12,42,23.90
2010,05,03,12,43,18.10
2010,05,03,12,44,22.40
2010,05,03,12,45,14.90
2010,05,03,12,46,25.40
2010,05,03,12,47,24.60
2010,05,03,12,48,27.20
2010,05,03,12,49,34.00
2010,05,03,12,50,27.50
2010,05,03,12,51,33.10
2010,05,03,12,52,30.90
2010,05,03,12,53,27.70
2010,05,03,12,54,21.90
2010,05,03,12,55,20.80
2010,05,03,12,56,31.90
2010,05,03,12,57,26.50
2010,05,03,12,58,24.60
2010,05,03,12,59,26.20
2010,05,03,13,00,34.80
2010,05,03,13,01,33.00
2010,05,03,13,02,38.40
2010,05,03,13,03,30.00
2010,05,03,13,04,28.40
2010,05,03,13,05,20.50
2010,05,03,13,06,28.00
2010,05,03,13,07,29.50
2010,05,03,13,08,26.30
2010,05,03,13,09,28.60
2010,05,03,13,10,27.90
2010,05,03,13,11,24.60
2010,05,03,13,12,23.00
2010,05,03,13,13,20.10
2010,05,03,13,14,27.00
2010,05,03,13,15,30.50
2010,05,03,13,16,27.00
2010,05,03,13,17,22.80
2010,05,03,13,18,23.50
2010,05,03,13,19,30.20
2010,05,03,13,20,27.70
2010,05,03,13,21,24.50
2010,05,03,13,22,27.60
2010,05,03,13,23,28.50
2010,05,03,13,24,22.40
2010,05,03,13,25,14.10
2010,05,03,13,26,19.60
2010,05,03,13,27,21.30
2010,05,03,13,28,15.80
2010,05,03,13,29,16.10
2010,05,03,13,30,15.80
2010,05,03,13,31,23.60
2010,05,03,13,32,20.10
2010,05,03,13,33,18.70
2010,05,03,13,34,21.00
2010,05,03,13,35,18.70
2010,05,03,13,36,17.70
2010,05,03,13,37,19.10
2010,05,03,13,38,19.80
2010,05,03,13,39,16.60
2010,05,03,13,40,22.60
2010,05,03,13,41,13.60
2010,05,03,13,42,14.60
2010,05,03,13,43,24.30
2010,05,03,13,44,33.00
2010,05,03,13,45,22.10
2010,05,03,13,46,32.40
2010,05,03,13,47,23.60
2010,05,03,13,48,20.40
2010,05,03,13,49,23.50
2010,05,03,13,50,23.30
2010,05,03,13,51,26.60
2010,05,03,13,52,25.40
2010,05,03,13,53,23.10
2010,05,03,13,54,18.10
2010,05,03,13,55,19.50
2010,05,03,13,56,30.50
2010,05,03,13,57,29.00
2010,05,03,13,58,19.10
2010,05,03,13,59,27.20
2010,05,03,14,00,22.40
2010,05,03,14,01,20.00
2010,05,03,14,02,15.30
2010,05,03,14,03,21.00
2010,05,03,14,04,21.20
2010,05,03,14,05,18.50
2010,05,03,14,06,27.50
2010,05,03,14,07,20.60
2010,05,03,14,08,20.70
2010,05,03,14,09,19.60
2010,05,03,14,10,24.70
2010,05,03,14,11,24.20
2010,05,03,14,12,21.50
2010,05,03,14,13,26.20
2010,05,03,14,14,23.60
2010,05,03,14,15,21.80
2010,05,03,14,16,23.20
2010,05,03,14,17,33.00
2010,05,03,14,18,31.30
2010,05,03,14,19,22.30
2010,05,03,14,20,29.00
2010,05,03,14,21,32.30
2010,05,03,14,22,32.10
2010,05,03,14,23,29.40
2010,05,03,14,24,33.70
2010,05,03,14,25,18.60
2010,05,03,14,26,22.40
2010,05,03,14,27,22.00
2010,05,03,14,28,18.30
2010,05,03,14,29,20.20
2010,05,03,14,30,25.30
2010,05,03,14,31,30.90
2010,05,03,14,32,23.00
2010,05,03,14,33,35.10
2010,05,03,14,34,24.10
2010,05,03,14,35,25.00
2010,05,03,14,36,27.60
2010,05,03,14,37,31.40
2010,05,03,14,38,35.10
2010,05,03,14,39,29.90
2010,05,03,14,40,26.90
2010,05,03,14,41,30.00
2010,05,03,14,42,20.50
2010,05,03,14,43,19.90
2010,05,03,14,44,17.90
2010,05,03,14,45,26.80
2010,05,03,14,46,23.80
2010,05,03,14,47,27.30
2010,05,03,14,48,25.50
2010,05,03,14,49,23.90
2010,05,03,14,50,17.30
2010,05,03,14,51,20.70
2010,05,03,14,52,23.20
2010,05,03,14,53,24.40
2010,05,03,14,54,20.50
2010,05,03,14,55,22.40
2010,05,03,14,56,24.40
2010,05,03,14,57,21.70
2010,05,03,14,58,22.00
2010,05,03,14,59,18.70
2010,05,03,15,00,22.70
2010,05,03,15,01,17.80
2010,05,03,15,02,25.50
2010,05,03,15,03,27.40
2010,05,03,15,04,25.10
2010,05,03,15,05,18.60
2010,05,03,15,06,16.90
2010,05,03,15,07,23.80
2010,05,03,15,08,25.40
2010,05,03,15,09,26.30
2010,05,03,15,10,15.90
2010,05,03,15,11,26.60
2010,05,03,15,12,32.80
2010,05,03,15,13,22.00
2010,05,03,15,14,30.90
2010,05,03,15,15,25.70
2010,05,03,15,16,26.60
2010,05,03,15,17,31.90
2010,05,03,15,18,26.90
2010,05,03,15,19,22.70
2010,05,03,15,20,30.70
2010,05,03,15,21,30.80
2010,05,03,15,22,26.90
2010,05,03,15,23,39.60
2010,05,03,15,24,31.40
2010,05,03,15,25,30.90
2010,05,03,15,26,30.00
2010,05,03,15,27,29.20
2010,05,03,15,28,25.70
2010,05,03,15,29,17.60
2010,05,03,15,30,22.20
2010,05,03,15,31,22.00
2010,05,03,15,32,25.30
2010,05,03,15,33,15.10
2010,05,03,15,34,18.40
2010,05,03,15,35,17.40
2010,05,03,15,36,18.40
2010,05,03,15,37,18.30
2010,05,03,15,38,20.20
2010,05,03,15,39,27.90
2010,05,03,15,40,30.60
2010,05,03,15,41,25.60
2010,05,03,15,42,17.10
2010,05,03,15,43,22.00
2010,05,03,15,44,20.60
2010,05,03,15,45,14.50
2010,05,03,15,46,12.10
2010,05,03,15,47,12.90
2010,05,03,15,48,22.10
2010,05,03,15,49,16.80
2010,05,03,15,50,20.10
2010,05,03,15,51,23.70
2010,05,03,15,52,27.60
2010,05,03,15,53,28.30
2010,05,03,15,54,23.60
2010,05,03,15,55,28.90
2010,05,03,15,56,28.20
2010,05,03,15,57,30.70
2010,05,03,15,58,29.60
2010,05,03,15,59,37.60
2010,05,03,16,00,30.70
2010,05,03,16,01,27.90
2010,05,03,16,02,25.10
2010,05,03,16,03,27.50
2010,05,03,16,04,26.90
2010,05,03,16,05,13.80
2010,05,03,16,06,26.30
2010,05,03,16,07,24.30
2010,05,03,16,08,26.10
2010,05,03,16,09,28.70
2010,05,03,16,10,31.90
2010,05,03,16,11,29.60
2010,05,03,16,12,24.80
2010,05,03,16,13,30.00
2010,05,03,16,14,28.00
2010,05,03,16,15,32.60
2010,05,03,16,16,23.40
2010,05,03,16,17,25.00
2010,05,03,16,18,24.60
2010,05,03,16,19,28.60
2010,05,03,16,20,25.80
2010,05,03,16,21,18.90
2010,05,03,16,22,21.80
2010,05,03,16,23,29.00
2010,05,03,16,24,27.90
2010,05,03,16,25,31.40
2010,05,03,16,26,23.40
2010,05,03,16,27,21.00
2010,05,03,16,28,20.60
2010,05,03,16,29,17.30
2010,05,03,16,30,26.00
2010,05,03,16,31,26.60
2010,05,03,16,32,18.40
2010,05,03,16,33,22.60
2010,05,03,16,34,17.40
2010,05,03,16,35,21.30
2010,05,03,16,36,20.30
2010,05,03,16,37,17.50
2010,05,03,16,38,20.80
2010,05,03,16,39,19.20
2010,05,03,16,40,20.60
2010,05,03,16,41,23.50
2010,05,03,16,42,24.30
2010,05,03,16,43,20.20
2010,05,03,16,44,8.50
2010,05,03,16,45,20.20
2010,05,03,16,46,21.10
2010,05,03,16,47,18.00
2010,05,03,16,48,11.40
2010,05,03,16,49,16.60
2010,05,03,16,50,19.50
2010,05,03,16,51,27.90
2010,05,03,16,52,22.60
2010,05,03,16,53,30.40
2010,05,03,16,54,20.70
2010,05,03,16,55,14.10
2010,05,03,16,56,17.20
2010,05,03,16,57,16.30
2010,05,03,16,58,7.60
2010,05,03,16,59,11.70
2010,05,03,17,00,28.10
2010,05,03,17,01,19.00
2010,05,03,17,02,28.00
2010,05,03,17,03,21.80
2010,05,03,17,04,23.80
2010,05,03,17,05,28.00
2010,05,03,17,06,17.20
2010,05,03,17,07,22.00
2010,05,03,17,08,26.80
2010,05,03,17,09,17.60
2010,05,03,17,10,24.10
2010,05,03,17,11,26.00
2010,05,03,17,12,27.90
2010,05,03,17,13,26.70
2010,05,03,17,14,22.40
2010,05,03,17,15,19.10
2010,05,03,17,16,19.90
2010,05,03,17,17,14.40
2010,05,03,17,18,17.60
2010,05,03,17,19,12.60
2010,05,03,17,20,13.40
2010,05,03,17,21,7.70
2010,05,03,17,22,16.10